{"data":{"norad_id":62679,"intl_designator":"2025-009BY","name":"FLOCK 4G-30","alt_names":[],"object_type":"PAYLOAD","status":"ACTIVE","operator":null,"country":"US","launch_date":"2025-01-14","launch_site_code":"AFWTR","launch_vehicle":null,"mission":null,"orbit_class":"UNKNOWN","rcs_meters":null,"size_class":null,"mass_kg":null,"dimensions":null,"purposes":["earth_obs"],"wikipedia_slug":null,"has_3d_model":false,"image_url":null,"decayed_at":null,"tle_current":{"epoch":"2026-09-19T11:31:28.884288Z","epoch_age_seconds":102599,"freshness":"FRESH","line1":"1 62679U 25009BY  26262.48019542  .00033690  00000+0  87667-3 0  9994","line2":"2 62679  97.3845 344.0217 0001809 356.3566   3.7666 15.38830586151014","mean_motion":15.38830586,"eccentricity":0.0001809,"inclination_deg":97.3845,"raan_deg":344.0217,"arg_perigee_deg":356.3566,"mean_anomaly_deg":3.7666,"bstar":0.00087667,"rev_number":15101,"period_min":93.577552532479,"perigee_km":448.33107935662,"apogee_km":450.80134237831,"semimajor_km":6827.7032108675,"source":"CELESTRAK","updated_at":"2026-09-20T09:00:34.723638Z"}}}